www.pogodaiklimat.ru
ПОГОДА в Мурриете
Время
и дата
16:35 20.07
16:55 20.07
17:15 20.07
17:35 20.07
17:55 20.07
18:15 20.07
18:35 20.07
18:55 20.07
19:15 20.07
19:35 20.07
19:55 20.07
20:15 20.07
20:35 20.07
20:55 20.07
21:15 20.07
21:35 20.07
21:55 20.07
22:15 20.07
22:35 20.07
22:55 20.07
23:15 20.07
23:35 20.07
23:55 20.07
00:15 21.07
00:35 21.07
00:55 21.07
01:15 21.07
01:35 21.07
01:55 21.07
02:15 21.07
02:35 21.07
02:55 21.07
03:15 21.07
03:35 21.07
03:55 21.07
04:15 21.07
04:35 21.07
04:55 21.07
05:15 21.07
05:35 21.07
05:55 21.07
06:15 21.07
06:35 21.07
06:55 21.07
07:15 21.07
07:35 21.07
07:55 21.07
08:15 21.07
Ветер
(напр.,м/с)
Видим. Явления Облачность Т
(С)
Тd
(С)
f
(%)
Тe
(С)
Тes
(С)
Комфортность P
(гПа)
Po
(гПа)
Тmin
(С)
Tmax
(С)
R
(мм)
R24
(мм)
S
(см)
Ю 6 16 км ясно +36.0 +11.0 22 +35 +38 очень
жарко
963.7
Ю 7 16 км ясно +35.0 +13.0 27 +35 +37 очень
жарко
963.7
Ю 6 16 км ясно +34.0 +14.0 30 +35 +36 очень
жарко
963.7
Ю 5 16 км ясно +33.0 +15.0 34 +35 +36 душно 963.7
Ю 4 16 км ясно +32.0 +15.0 36 +34 +36 душно 964.0
Ю 3 16 км ясно +31.0 +15.0 38 +33 +34 душно 964.3
ЮЗ 3 16 км ясно +30.0 +15.0 40 +32 +33 жарко 964.0
Ю 2 16 км ясно +29.0 +15.0 43 +32 +32 душно 964.3
Ю 3 16 км ясно +28.0 +15.0 45 +31 +31 душно 964.7
Ю 2 16 км ясно +27.0 +15.0 48 +30 +30 душно 964.7
Ю 2 16 км ясно +27.0 +15.0 48 +30 +30 душно 965.0
штиль 0 16 км ясно +27.0 +15.0 48 +30 +30 душно 965.0
штиль 0 16 км ясно +27.0 +15.0 48 +30 +30 душно 965.3
штиль 0 16 км ясно +27.0 +15.0 48 +30 +30 душно 965.3
штиль 0 16 км ясно +27.0 +15.0 48 +30 +30 душно 965.3
Ю 2 16 км ясно +27.0 +15.0 48 +30 +30 душно 965.3
Ю 2 16 км ясно +26.0 +15.0 51 +29 +29 душно 965.3
штиль 0 16 км ясно +26.0 +15.0 51 +29 +29 душно 965.6
Ю 2 16 км ясно +25.0 +15.0 54 +28 +28 жарко 965.3
Ю 2 16 км ясно +24.0 +15.0 57 +27 +27 жарко 965.3
штиль 0 16 км ясно +25.0 +14.0 50 +27 +27 жарко 965.3
штиль 0 16 км ясно +24.0 +14.0 54 +26 +26 жарко 965.3
штиль 0 16 км ясно +24.0 +14.0 54 +26 +26 жарко 965.0
штиль 0 16 км ясно +24.0 +15.0 57 +27 +27 жарко 965.0
штиль 0 16 км ясно +24.0 +15.0 57 +27 +27 жарко 964.7
штиль 0 16 км ясно +23.0 +15.0 61 +27 +27 душно 964.7
штиль 0 16 км ясно +24.0 +15.0 57 +27 +27 жарко 964.7
штиль 0 16 км ясно +24.0 +15.0 57 +27 +27 жарко 964.3
штиль 0 16 км ясно +23.0 +14.0 57 +26 +26 жарко 964.3
штиль 0 16 км ясно +24.0 +15.0 57 +27 +27 жарко 964.3
штиль 0 16 км ясно +24.0 +15.0 57 +27 +27 жарко 964.3
штиль 0 16 км ясно +23.0 +15.0 61 +27 +27 душно 964.3
штиль 0 16 км ясно +23.0 +14.0 57 +26 +26 жарко 964.3
штиль 0 16 км ясно +23.0 +14.0 57 +26 +26 жарко 964.3
штиль 0 16 км ясно +23.0 +14.0 57 +26 +26 жарко 964.3
штиль 0 16 км ясно +23.0 +14.0 57 +26 +26 жарко 964.0
штиль 0 16 км ясно +23.0 +14.0 57 +26 +26 жарко 964.0
штиль 0 16 км ясно +22.0 +15.0 64 +25 +25 комфорт 964.3
штиль 0 16 км ясно +23.0 +15.0 61 +27 +27 душно 964.3
штиль 0 16 км ясно +23.0 +15.0 61 +27 +27 душно 964.3
штиль 0 16 км ясно +23.0 +15.0 61 +27 +27 душно 964.7
штиль 0 16 км ясно +23.0 +15.0 61 +27 +29 душно 964.7
штиль 0 16 км ясно +23.0 +15.0 61 +27 +29 душно 965.0
штиль 0 16 км ясно +24.0 +15.0 57 +27 +28 жарко 965.0
штиль 0 16 км ясно +24.0 +15.0 57 +27 +32 жарко 965.3
штиль 0 16 км ясно +26.0 +14.0 48 +28 +34 жарко 965.3
штиль 0 16 км ясно +27.0 +13.0 42 +29 +34 жарко 965.3
ЮЗ 2 16 км ясно +28.0 +13.0 40 +30 +38 жарко 965.3
Местоположение метеостанции French Valley Airport: широта 33.5742 долгота -117.1285 высота над уровнем моря 411 м.
В архиве по умолчанию представлена погода в Мурриете за последние 1-2 суток. Обновление информации о фактической погоде в базе происходит ежечасно! Архивные данные за месяц целиком и за предыдущие месяцы Вы можете получить, выбрав интересующий диапазон дат из раскрывающегося списка и нажав кнопку "Ввод!".
Внимание! Архив погоды МЕТАР в базе сайта по станциям, не включенным в климатический монитор, хранится не более 60 дней. Нет смысла пытаться выбрать более раннюю дату.
*Определитесь, кто Вы:
Внимание! Время в таблицах - местное (без учета летнего времени). Для получения всемирного времени необходимо вычесть поправку, которая равна -8 ч.
Смотрите также архив погоды в соседних городах и на ближайших метеорологических станциях:
Партнеры нашего сайта:      
Пояснения к столбцам:
  • Ветер - указаны скорость ветра в м/с - средняя за 10 мин, порывы в срок и между сроками (в фигурных скобках) и направление, откуда дует ветер: С - северный,
  • СВ - северо-восточный, В - восточный, ЮВ - юго-восточный, Ю - южный, ЮЗ - юго-западный, З - западный, СЗ - северо-западный.
  • Видимость - горизонтальная дальность видимости в метрах или километрах. При видимости от 1 до 10 км при отсутствии осадков обычно наблюдается дымка, при ухудшении видимости до 1 км и менее - туман. В сухую погоду видимость может ухудшаться дымом, пылью или мглою.
  • Явления - указаны атмосферные явления, наблюдавшиеся в срок или в последний час перед сроком; фигурными скобками обозначены явления, наблюдавшиеся между сроками (за 1-3 часа до срока); квадратными скобками обозначены град или гололедные отложения с указанием их диаметра в мм.
  • Облачность - указаны через наклонную черту общая и нижняя облачность в баллах и высота нижней границы облаков в метрах; квадратными скобками обозначены формы облаков: Ci - перистые, Cs - перисто-слоистые, Cc - перисто-кучевые, Ac - высококучевые, As - высокослоистые, Sc - слоисто-кучевые, Ns - слоисто-дождевые, Cu - кучевые, Cb - кучево-дождевые. Подробнее классификацию облаков см. в Атласе облаков (PDF).
  • T - Температура воздуха - температура, измеренная на высоте 2 м над землей.
  • Td - Температура точки росы - температура, при понижении до которой содержащийся в воздухе водяной пар достигнет насыщения.
  • f - Относительная влажность воздуха - влажноcть воздуха, измеренная на высоте 2 м над землей.
  • Te - Эффективная температура - температура, которую ощущает одетый по сезону человек в тени. Характеристика душности погоды. При расчете учитывается влияние влажности воздуха и скорости ветра на теплоощущения человека.
  • Tes - Эффективная температура на солнце - температура, которую ощущает человек, с поправкой на солнечный нагрев. Характеристика знойности погоды. Зависит от высоты солнца над горизонтом, облачности и скорости ветра. Ночью, в пасмурную погоду, а также при ветре 12 м/с и более поправка равна нулю.
  • P - Атмосферное давление - приведенное к уровню моря атмосферное давление.
  • Po - Атмосферное давление - измеренное на уровне метеостанции атмосферное давление.
  • Tmin - Минимальная температура - минимум температуры воздуха на высоте 2 м над землей.
  • Tmax - Максимальная температура - максимум температуры воздуха на высоте 2 м над землей.
  • R - Количество осадков - Количество выпавших осадков за период времени, мм. При наведении курсора мыши на число - период времени, за который выпало указанное количество осадков.
  • R24 - Количество осадков - Количество выпавших осадков за 24 часа, мм.
  • S - Снежный покров - Высота снежного покрова, см. При наведении курсора мыши на число - состояние снежного покрова и степень покрытия местности в баллах.